Home   Weather   Narva   Past weeks

Flag for Estonia Past Weather in Narva, Estonia — Yesterday and Last 2 Weeks

Now
58 °F

Partly sunny.


Feels Like: 56 °F
Forecast: 51 / 60 °F
Wind: 7 mph from Southwest

Location: Narva

Current Time: Jun 26, 2017 at 10:03:05 am

Latest Report: Jun 26, 2017 at 9:00 am


Visibility: 13 mi

Pressure: 29.41 "Hg

Humidity: 77%

Dew Point: 50 °F

Location of NarvaLocation

Past Weather in Narva — Graph

°F

Narva Temperature Yesterday

Maximum temperature yesterday: 69 °F (at 1:00 pm)
Minimum temperature yesterday: 54 °F (at 3:00 am)
Average temperature yesterday: 61 °F

High & Low Weather Summary for the Past Weeks

 TemperatureHumidityPressure
High71 °F (Jun 11, 3:00 pm)100% (Jun 11, 10:00 pm)29.96 "Hg (Jun 11, 10:00 pm)
Low37 °F (Jun 16, 3:00 am)24% (Jun 15, 1:00 pm)29.23 "Hg (Jun 13, 6:00 am)
Average57 °F78%29.66 "Hg
* Reported Jun 11 8:00 am — Jun 26 8:00 am, Narva. Weather by CustomWeather, © 2017

Note: Actual official high and low records may vary slightly from our data, if they occured in-between our weather recording intervals... More about our weather records

Advertising

Narva Weather History for the Previous 24 Hours

Scroll right to see more
 ConditionsComfort  
Time TempWeatherWind HumidityBarometerVisibility
8:00 am
Mon, Jun 26
58 °FPartly sunny.6 mph81%29.41 "Hg12 mi
7:00 am57 °FPassing clouds.7 mph83%29.41 "Hg12 mi
6:00 am55 °FOvercast.6 mph87%29.41 "Hg12 mi
5:00 am54 °FOvercast.5 mph86%29.44 "Hg12 mi
4:00 am54 °FPassing clouds.5 mph85%29.44 "Hg12 mi
3:00 am54 °FPassing clouds.3 mph77%29.44 "Hg12 mi
2:00 am55 °FOvercast.2 mph77%29.47 "Hg12 mi
1:00 am55 °FPassing clouds.3 mph75%29.47 "Hg12 mi
12:00 am57 °FOvercast.3 mph67%29.47 "Hg12 mi
11:00 pm
Sun, Jun 25
58 °FRain showers. Overcast.5 mph63%29.47 "Hg12 mi
10:00 pm59 °FRain showers. Partly sunny.5 mph57%29.50 "Hg12 mi
9:00 pm60 °FPartly sunny.3 mph57%29.47 "Hg12 mi
8:00 pm63 °FPassing clouds.6 mph54%29.50 "Hg12 mi
7:00 pm61 °FOvercast.3 mph69%29.50 "Hg12 mi
6:00 pm65 °FPassing clouds.6 mph55%29.47 "Hg12 mi
5:00 pm62 °FPartly sunny.3 mph75%29.47 "Hg12 mi
4:00 pm64 °FPartly sunny.2 mph73%29.47 "Hg12 mi
3:00 pm66 °FPartly sunny.6 mph62%29.47 "Hg12 mi
2:00 pm63 °FLight rain. Partly sunny.8 mph66%29.47 "Hg12 mi
1:00 pm69 °FOvercast.8 mph53%29.44 "Hg12 mi
12:00 pm67 °FPassing clouds.7 mph55%29.44 "Hg12 mi
11:00 am66 °FPassing clouds.7 mph58%29.44 "Hg12 mi
10:00 am64 °FSunny.8 mph66%29.44 "Hg12 mi
Weather by CustomWeather, © 2017

See weather overviewHow to use our weather pages